Weather History for KCAD - January, 2013

Change the Weather History Date:

Saturday, January 5, 2013

  Actual Average Record
Temperature  
Mean Temperature 20 °F -  
Max Temperature 35 °F 27 °F 48 °F (2007)
Min Temperature 6 °F 8 °F -27 °F (1981)
Degree Days  
Heating Degree Days 44    
Moisture  
Dew Point 19 °F    
Average Humidity 86    
Maximum Humidity 90    
Minimum Humidity 79    
Precipitation  
Precipitation 0.00 in - - ()
Sea Level Pressure  
Sea Level Pressure 30.01 in    
Wind  
Wind Speed 4 mph (SSW)    
Max Wind Speed 17 mph    
Max Gust Speed 24 mph    
Visibility 6 miles    
Events Fog , Snow    
Averages and records for this station are not official NWS values.
T = Trace of Precipitation, MM = Missing Value Source: NWS Daily Summary

Daily Weather History Graph

Daily Weather History Graph

Search for Another Location

Airport or City:

Trip Planner

Search our weather history database for the weather conditions in past years. The results will help you decide how hot, cold, wet, or windy it might be!

Date:

Astronomy

Jan. 05, 2013 Rise Set
Actual Time 8:17 AM EST 5:17 PM EST
Civil Twilight 7:44 AM EST 5:50 PM EST
Nautical Twilight 7:07 AM EST 6:26 PM EST
Astronomical Twilight 6:32 AM EST 7:01 PM EST
Moon 1:15 AM EST (1/5) 12:13 PM EST (1/5)
Length of Visible Light 10h 06m
Length of Day
9h 00m
Last Quarter, 44% of the Moon is Illuminated
Jan 5
Last Quarter
Jan 11
New
Jan 18
First Quarter
Jan 26
Full
Feb 3
Last Quarter

Hourly Weather History & Observations

Time (EST) Temp. Windchill Dew Point Humidity Pressure Visibility Wind Dir Wind Speed Gust Speed Precip Events Conditions
12:15 AM 16.3 °F 10.8 °F 13.3 °F 88% 30.06 in 7.0 mi SSW 3.5 mph - N/A   Clear
12:34 AM 19.4 °F 10.4 °F 16.7 °F 89% 30.07 in 7.0 mi SSW 6.9 mph - N/A   Clear
12:55 AM 18.9 °F - 16.2 °F 89% 30.08 in 5.0 mi Calm Calm - N/A   Clear
1:15 AM 18.9 °F - 15.8 °F 88% 30.08 in 4.0 mi Calm Calm - N/A   Clear
1:35 AM 18.9 °F - 16.0 °F 89% 30.08 in 2.0 mi Calm Calm - N/A   Mostly Cloudy
1:55 AM 15.1 °F - 12.0 °F 88% 30.10 in 0.5 mi Calm Calm - N/A Fog Light Freezing Fog
2:15 AM 15.1 °F - 12.2 °F 88% 30.10 in 0.5 mi Calm Calm - N/A Fog Light Freezing Fog
2:35 AM 13.8 °F - 10.4 °F 86% 30.11 in 1.5 mi Calm Calm - N/A   Mostly Cloudy
2:55 AM 12.7 °F - 9.1 °F 86% 30.13 in 1.0 mi Calm Calm - N/A   Mostly Cloudy
3:15 AM 13.1 °F - 9.7 °F 86% 30.13 in 0.8 mi Calm Calm - N/A   Mist
3:35 AM 11.3 °F - 7.5 °F 85% 30.13 in 3.0 mi Calm Calm - N/A   Clear
3:55 AM 10.6 °F - 6.8 °F 85% 30.14 in 7.0 mi Calm Calm - N/A   Clear
4:15 AM 9.7 °F - 5.7 °F 84% 30.13 in 1.5 mi Calm Calm - N/A   Mist
4:35 AM 10.4 °F - 6.8 °F 85% 30.13 in 0.8 mi Calm Calm - N/A   Overcast
4:55 AM 11.1 °F - 7.3 °F 85% 30.14 in 5.0 mi Calm Calm - N/A   Overcast
5:14 AM 7.9 °F - 3.7 °F 83% 30.13 in 10.0 mi Calm Calm - N/A   Overcast
5:35 AM 7.2 °F - 3.0 °F 83% 30.12 in 10.0 mi Calm Calm - N/A   Overcast
5:55 AM 9.5 °F - 5.5 °F 84% 30.12 in 0.2 mi Calm Calm - N/A Fog Light Freezing Fog
6:14 AM 8.6 °F - 5.0 °F 85% 30.13 in 0.2 mi Calm Calm - N/A Fog Light Freezing Fog
6:55 AM 8.6 °F - 4.6 °F 84% 30.13 in 1.0 mi Calm Calm - N/A   Haze
7:14 AM 8.4 °F - 5.0 °F 86% 30.12 in 0.2 mi Calm Calm - N/A Fog Light Freezing Fog
7:35 AM 8.6 °F - 5.2 °F 86% 30.12 in 0.2 mi Calm Calm - N/A Fog Light Freezing Fog
7:55 AM 6.1 °F - 2.7 °F 86% 30.13 in 0.2 mi Calm Calm - N/A Fog Light Freezing Fog
8:14 AM 7.0 °F - 3.4 °F 85% 30.12 in 0.2 mi Calm Calm - N/A Fog Light Freezing Fog
8:35 AM 6.1 °F - 2.1 °F 84% 30.13 in 0.2 mi Calm Calm - N/A Fog Light Freezing Fog
8:55 AM 8.6 °F - 5.0 °F 85% 30.13 in 0.2 mi Calm Calm - N/A Fog Light Freezing Fog
9:14 AM 8.6 °F - 4.8 °F 85% 30.13 in 0.8 mi Calm Calm - N/A   Overcast
9:35 AM 11.3 °F - 7.5 °F 85% 30.12 in 2.0 mi Calm Calm - N/A   Overcast
9:55 AM 11.3 °F - 7.7 °F 85% 30.13 in 2.0 mi Calm Calm - N/A   Scattered Clouds
10:14 AM 13.8 °F - 10.2 °F 86% 30.13 in 4.0 mi Calm Calm - N/A   Clear
10:55 AM 16.3 °F - 12.9 °F 86% 30.11 in 5.0 mi Calm Calm - N/A   Clear
11:14 AM 18.9 °F - 15.8 °F 88% 30.10 in 7.0 mi Calm Calm - N/A   Mostly Cloudy
11:55 AM 28.9 °F 20.4 °F 26.4 °F 90% 30.07 in 7.0 mi SSE 9.2 mph - N/A   Overcast
12:14 PM 28.9 °F 19.8 °F 26.4 °F 90% 30.06 in 7.0 mi South 10.4 mph - N/A   Overcast
12:35 PM 28.9 °F 21.1 °F 26.2 °F 90% 30.05 in 7.0 mi South 8.1 mph - N/A   Overcast
12:55 PM 28.9 °F 20.4 °F 25.7 °F 88% 30.03 in 7.0 mi South 9.2 mph - N/A   Overcast
1:14 PM 29.1 °F 20.6 °F 25.9 °F 88% 30.03 in 7.0 mi South 9.2 mph 16.1 mph N/A   Overcast
1:35 PM 31.5 °F 22.3 °F 27.9 °F 87% 30.02 in 7.0 mi South 11.5 mph 17.3 mph N/A   Overcast
1:55 PM 31.5 °F 24.2 °F 27.5 °F 85% 30.01 in 10.0 mi SSW 8.1 mph - N/A   Overcast
2:15 PM 31.5 °F 22.9 °F 27.5 °F 85% 30.00 in 7.0 mi South 10.4 mph 16.1 mph N/A   Overcast
2:35 PM 31.5 °F 24.2 °F 27.3 °F 85% 29.98 in 10.0 mi SSW 8.1 mph 17.3 mph N/A   Overcast
2:55 PM 31.5 °F 25.8 °F 27.1 °F 84% 29.97 in 10.0 mi South 5.8 mph - N/A   Overcast
3:15 PM 31.5 °F 24.9 °F 27.0 °F 83% 29.97 in 10.0 mi South 6.9 mph - N/A   Overcast
3:35 PM 31.5 °F 22.9 °F 26.6 °F 82% 29.96 in 10.0 mi SSW 10.4 mph - N/A   Mostly Cloudy
3:55 PM 32.0 °F 24.8 °F 27.0 °F 82% 29.95 in 10.0 mi South 8.1 mph - N/A   Mostly Cloudy
4:15 PM 33.1 °F 24.9 °F 27.7 °F 81% 29.93 in 10.0 mi South 10.4 mph 16.1 mph N/A   Mostly Cloudy
4:35 PM 32.4 °F 26.0 °F 26.6 °F 79% 29.93 in 10.0 mi SSW 6.9 mph - N/A   Scattered Clouds
4:54 PM 31.8 °F 22.3 °F 26.2 °F 80% 29.93 in 10.0 mi SSW 12.7 mph - N/A   Clear
5:15 PM 31.5 °F 23.5 °F 26.1 °F 80% 29.92 in 10.0 mi South 9.2 mph - N/A   Clear
5:54 PM 31.5 °F 23.5 °F 26.2 °F 81% 29.91 in 10.0 mi South 9.2 mph - N/A   Scattered Clouds
6:15 PM 32.0 °F 23.0 °F 27.1 °F 82% 29.91 in 10.0 mi South 11.5 mph 17.3 mph N/A   Overcast
6:35 PM 32.4 °F 23.5 °F 28.0 °F 84% 29.90 in 10.0 mi SSW 11.5 mph 18.4 mph N/A   Overcast
6:54 PM 33.8 °F 23.9 °F 29.3 °F 84% 29.89 in 10.0 mi SSW 15.0 mph 18.4 mph N/A   Overcast
7:15 PM 33.8 °F 24.3 °F 29.3 °F 84% 29.89 in 10.0 mi SSW 13.8 mph 18.4 mph N/A   Overcast
7:35 PM 33.8 °F 23.5 °F 29.3 °F 84% 29.88 in 10.0 mi SSW 16.1 mph 19.6 mph N/A   Overcast
7:54 PM 33.8 °F 23.2 °F 29.3 °F 84% 29.87 in 10.0 mi SSW 17.3 mph 24.2 mph N/A   Mostly Cloudy
8:15 PM 33.8 °F 24.3 °F 29.3 °F 84% 29.87 in 10.0 mi SSW 13.8 mph 21.9 mph N/A   Mostly Cloudy
8:34 PM 33.8 °F 23.9 °F 29.7 °F 85% 29.87 in 10.0 mi SSW 15.0 mph 23.0 mph N/A   Overcast
8:55 PM 33.8 °F 24.8 °F 29.8 °F 85% 29.86 in 10.0 mi SSW 12.7 mph 18.4 mph N/A   Overcast
9:15 PM 35.4 °F 27.8 °F 31.6 °F 86% 29.85 in 10.0 mi SSW 10.4 mph 17.3 mph N/A   Overcast
9:34 PM 33.8 °F 25.3 °F 30.4 °F 87% 29.85 in 4.0 mi SSW 11.5 mph - N/A Snow Light Snow
9:55 PM 33.8 °F 26.4 °F 30.7 °F 89% 29.85 in 7.0 mi SSW 9.2 mph - N/A Snow Light Snow
10:15 PM 33.8 °F 26.4 °F 30.9 °F 89% 29.85 in 5.0 mi SSW 9.2 mph - N/A Snow Light Snow
10:34 PM 33.8 °F 26.4 °F 31.1 °F 90% 29.85 in 10.0 mi SSW 9.2 mph - N/A   Overcast
10:55 PM 33.8 °F 24.8 °F 31.1 °F 90% 29.84 in 2.0 mi SSW 12.7 mph - N/A Snow Light Snow
11:15 PM 33.8 °F 25.3 °F 31.1 °F 90% 29.84 in 3.0 mi SW 11.5 mph - N/A Snow Light Snow
11:34 PM 33.8 °F 24.8 °F 31.1 °F 90% 29.84 in 10.0 mi SW 12.7 mph 16.1 mph N/A Snow Light Snow
11:55 PM 33.8 °F 24.8 °F 31.1 °F 90% 29.83 in 7.0 mi SW 12.7 mph 18.4 mph N/A Snow Light Snow